�N����,����,�~����,�C��,���x,�C��,����,���ϕ���,�ő�u�ԕ���,�ő厞����,���˗�,�I�_���x,�n�����x,�ő啗���N��,DTYPE
"18/08/24","00:10",1.8,25.0,87.5,986.8,115.7,3.6,8.0,132.7,0.00,22.8,25.6,"00:09:06",1
"18/08/24","00:20",3.0,24.9,88.3,986.3,129.7,3.9,11.6,108.2,0.00,22.9,25.0,"00:10:24",1
"18/08/24","00:30",3.4,25.0,88.7,987.8,156.0,4.1,11.9,126.6,0.00,23.0,24.8,"00:26:10",1
"18/08/24","00:40",6.4,25.0,89.5,988.2,178.2,2.7,6.0,145.3,0.00,23.2,24.7,"00:30:16",1
"18/08/24","00:50",6.6,25.0,90.4,988.9,197.2,2.8,6.7,184.6,0.00,23.4,24.6,"00:44:54",1
"18/08/24","01:00",7.2,25.0,91.1,989.6,209.0,2.0,4.1,197.8,0.00,23.5,24.5,"00:58:26",1
"18/08/24","01:10",8.6,25.1,91.7,989.9,201.5,3.4,7.5,220.7,0.00,23.7,24.4,"01:07:14",1
"18/08/24","01:20",6.6,25.2,92.0,990.6,194.6,3.6,8.0,187.4,0.00,23.8,24.5,"01:11:44",1
"18/08/24","01:30",7.8,25.2,92.3,990.4,175.8,2.5,4.8,163.3,0.00,23.9,24.6,"01:25:28",1
"18/08/24","01:40",3.8,25.3,92.6,990.8,178.5,3.6,7.8,200.3,0.00,24.1,24.7,"01:33:28",1
"18/08/24","01:50",6.0,25.4,92.6,991.8,176.4,4.4,7.7,190.2,0.00,24.2,24.5,"01:47:18",1
"18/08/24","02:00",7.0,25.3,92.8,991.8,183.1,3.4,6.4,191.2,0.00,24.1,24.7,"01:53:20",1
"18/08/24","02:10",4.4,25.3,92.9,992.5,223.6,3.1,6.2,223.8,0.00,24.1,24.8,"02:00:24",1
"18/08/24","02:20",2.0,25.3,92.6,993.0,184.5,4.2,10.0,221.2,0.00,24.1,24.6,"02:12:48",1
"18/08/24","02:30",1.2,25.5,91.5,994.1,188.0,4.2,8.0,194.3,0.00,24.1,24.8,"02:25:52",1
"18/08/24","02:40",1.2,25.7,90.4,994.4,175.2,3.5,7.0,208.2,0.00,24.0,24.9,"02:38:48",1
"18/08/24","02:50",1.4,25.7,89.8,994.4,180.2,2.8,6.2,193.5,0.00,23.9,24.9,"02:43:28",1
"18/08/24","03:00",0.8,25.7,89.4,995.1,169.2,2.1,4.4,130.0,0.00,23.9,25.0,"02:54:48",1
"18/08/24","03:10",1.0,25.7,89.1,995.3,172.2,2.5,4.9,199.1,0.00,23.8,24.8,"03:04:32",1
"18/08/24","03:20",0.4,25.7,89.1,995.8,161.6,2.1,4.8,172.2,0.00,23.8,24.8,"03:11:20",1
"18/08/24","03:30",0.0,25.9,88.1,995.8,177.7,2.0,5.1,220.9,0.00,23.8,24.9,"03:20:02",1
"18/08/24","03:40",0.0,26.5,85.4,996.3,170.8,3.1,10.1,144.8,0.00,23.9,25.0,"03:34:48",1
"18/08/24","03:50",0.0,27.1,82.2,996.7,181.1,3.2,7.5,175.6,0.00,23.8,25.1,"03:48:48",1
"18/08/24","04:00",0.0,27.5,79.6,997.2,189.2,3.9,8.2,207.5,0.00,23.7,25.0,"03:58:16",1
"18/08/24","04:10",0.0,27.7,78.1,997.4,197.4,3.1,5.9,208.6,0.00,23.6,25.1,"04:09:06",1
"18/08/24","04:20",0.0,27.8,77.1,997.7,193.9,2.8,7.5,234.3,0.00,23.5,25.2,"04:12:24",1
"18/08/24","04:30",0.0,27.7,77.5,997.7,186.0,2.0,4.9,225.5,0.00,23.4,24.8,"04:27:42",1
"18/08/24","04:40",0.0,28.0,76.1,998.2,201.4,2.7,4.4,206.4,0.00,23.4,24.9,"04:36:18",1
"18/08/24","04:50",0.0,27.7,76.6,997.9,190.2,2.0,4.7,225.9,0.00,23.3,25.1,"04:45:52",1
"18/08/24","05:00",0.0,27.8,76.0,997.9,209.8,2.2,5.8,242.2,0.00,23.2,25.1,"04:54:42",1
"18/08/24","05:10",0.0,27.8,75.8,998.4,197.4,1.6,3.9,226.8,0.00,23.2,25.2,"05:05:06",1
"18/08/24","05:20",0.0,27.6,76.7,998.6,178.0,1.2,3.6,201.5,0.00,23.2,25.1,"05:15:20",1
"18/08/24","05:30",0.0,27.4,77.4,998.9,102.1,0.7,3.5,74.2,0.00,23.1,25.3,"05:22:56",1
"18/08/24","05:40",0.0,27.2,78.2,999.3,35.8,0.8,2.2,23.0,0.00,23.1,25.1,"05:37:04",1
"18/08/24","05:50",0.0,26.9,79.7,999.1,2.6,0.6,2.5,326.5,0.00,23.1,25.1,"05:48:24",1
"18/08/24","06:00",0.0,26.5,82.0,999.1,314.4,0.7,2.7,237.8,0.00,23.2,25.2,"05:52:32",1
"18/08/24","06:10",0.0,26.2,83.3,999.1,323.6,1.1,1.8,334.4,0.00,23.2,25.1,"06:06:08",1
"18/08/24","06:20",0.0,26.0,84.7,999.3,342.0,1.3,1.8,358.3,0.00,23.3,25.2,"06:11:04",1
"18/08/24","06:30",0.0,25.9,85.2,999.3,340.3,1.2,1.9,314.0,0.00,23.3,25.0,"06:29:52",1
"18/08/24","06:40",0.0,25.6,87.0,999.3,336.0,1.3,2.1,341.8,0.00,23.3,25.3,"06:30:56",1
"18/08/24","06:50",0.0,25.5,87.8,999.3,336.2,1.3,1.9,340.5,0.00,23.4,25.0,"06:41:12",1
"18/08/24","07:00",0.0,25.6,87.8,999.8,346.3,0.7,1.8,4.7,0.01,23.5,25.2,"06:52:56",1
"18/08/24","07:10",0.0,26.0,87.1,999.8,11.6,0.7,3.2,338.6,0.02,23.7,25.2,"07:04:32",1
"18/08/24","07:20",0.0,26.6,86.1,999.6,310.6,0.5,1.3,331.1,0.04,24.1,25.0,"07:19:12",1
"18/08/24","07:30",0.0,26.7,85.0,999.3,262.5,0.7,2.7,163.6,0.05,24.0,25.3,"07:29:20",1
"18/08/24","07:40",0.0,27.6,80.5,999.6,210.0,1.1,2.5,206.8,0.06,24.0,25.3,"07:35:52",1
"18/08/24","07:50",0.0,28.0,78.4,999.6,176.3,1.2,2.7,132.6,0.07,23.9,25.4,"07:48:08",1
"18/08/24","08:00",0.0,28.6,76.0,999.8,183.7,2.1,5.1,187.3,0.09,24.0,25.6,"07:59:04",1
"18/08/24","08:10",0.0,28.8,75.2,1000.0,190.4,2.2,5.0,192.8,0.10,24.0,25.3,"08:04:08",1
"18/08/24","08:20",0.0,28.9,74.1,999.8,182.9,2.2,5.1,192.1,0.11,23.9,25.5,"08:19:36",1
"18/08/24","08:30",0.0,29.0,73.9,1000.0,193.2,2.6,6.0,232.7,0.11,23.9,25.5,"08:25:28",1
"18/08/24","08:40",0.0,29.2,73.5,1000.0,194.5,2.7,8.0,112.5,0.11,24.0,25.7,"08:36:08",1
"18/08/24","08:50",0.0,29.2,73.5,1000.5,185.9,2.8,6.4,227.9,0.12,24.0,25.8,"08:44:40",1
"18/08/24","09:00",0.0,29.3,73.6,1000.0,192.3,2.7,6.2,223.6,0.13,24.1,25.7,"08:51:12",1
"18/08/24","09:10",0.0,29.5,73.6,999.8,187.1,2.1,4.4,156.3,0.15,24.3,26.0,"09:01:12",1
"18/08/24","09:20",0.0,30.1,72.2,999.8,183.1,1.8,4.0,226.8,0.23,24.6,25.8,"09:14:48",1
"18/08/24","09:30",0.0,30.6,70.2,999.8,178.0,2.2,4.4,179.0,0.31,24.6,26.0,"09:26:10",1
"18/08/24","09:40",0.0,30.9,69.3,1000.3,197.5,3.0,5.7,133.1,0.33,24.7,26.3,"09:35:52",1
"18/08/24","09:50",0.0,31.4,68.6,1000.5,190.3,2.7,6.5,204.0,0.37,25.0,26.3,"09:47:20",1
"18/08/24","10:00",0.0,31.4,66.1,1000.5,184.5,3.1,5.2,154.5,0.38,24.3,26.7,"09:50:48",1
"18/08/24","10:10",0.0,31.8,65.6,1001.2,183.4,2.7,5.4,199.1,0.42,24.6,26.8,"10:00:02",1
"18/08/24","10:20",0.0,32.1,65.4,1001.2,193.0,2.8,6.8,226.8,0.42,24.8,27.0,"10:10:16",1
"18/08/24","10:30",0.0,32.1,65.5,1001.5,193.0,2.7,4.9,211.4,0.50,24.9,27.2,"10:28:00",1
"18/08/24","10:40",0.0,32.0,64.7,1001.9,191.2,2.8,6.4,228.3,0.40,24.6,27.5,"10:32:00",1
"18/08/24","10:50",0.0,31.4,68.0,1001.5,179.5,2.3,3.7,136.5,0.21,24.8,27.6,"10:48:24",1
"18/08/24","11:00",0.0,31.3,67.1,1001.2,192.9,2.1,4.9,204.5,0.20,24.5,27.8,"10:56:00",1
"18/08/24","11:10",0.0,30.8,69.3,1001.0,193.1,2.6,5.2,202.4,0.11,24.6,27.8,"11:04:32",1
"18/08/24","11:20",0.0,31.3,69.2,1001.0,185.7,2.2,4.8,182.7,0.21,25.0,27.9,"11:13:28",1
"18/08/24","11:30",0.0,31.0,69.6,1001.2,184.7,2.8,5.8,211.0,0.24,24.8,28.0,"11:28:08",1
"18/08/24","11:40",0.0,31.9,67.4,1001.0,186.5,2.6,5.2,185.1,0.42,25.1,28.1,"11:36:08",1
"18/08/24","11:50",0.0,31.7,67.0,1001.2,180.8,2.6,4.4,146.3,0.35,24.9,28.2,"11:46:56",1
"18/08/24","12:00",0.0,31.9,66.2,1001.5,213.6,2.7,5.0,221.1,0.37,24.8,28.3,"11:56:56",1
"18/08/24","12:10",0.2,32.4,65.6,1001.0,206.0,2.6,7.0,226.1,0.52,25.2,28.5,"12:07:08",1
"18/08/24","12:20",0.0,32.5,63.6,1001.0,205.5,2.8,7.5,209.5,0.61,24.7,28.7,"12:15:12",1
"18/08/24","12:30",0.0,32.7,64.4,1001.5,185.6,2.8,6.3,190.0,0.50,25.1,29.0,"12:21:30",1
"18/08/24","12:40",0.0,32.4,66.6,1001.5,186.2,3.0,6.4,199.1,0.53,25.4,29.0,"12:33:36",1
"18/08/24","12:50",0.0,32.6,65.6,1001.9,205.0,2.1,4.5,222.6,0.54,25.4,29.3,"12:48:48",1
"18/08/24","13:00",0.0,32.3,66.7,1001.7,182.6,2.0,5.5,230.9,0.45,25.4,29.6,"12:54:24",1
"18/08/24","13:10",0.0,32.0,69.2,1001.7,188.6,2.7,5.1,216.4,0.41,25.7,29.7,"13:05:12",1
"18/08/24","13:20",0.0,31.9,68.1,1001.5,194.8,2.6,6.6,204.2,0.31,25.3,29.7,"13:18:08",1
"18/08/24","13:30",0.0,32.9,65.7,1001.5,194.2,2.6,8.1,204.5,0.61,25.7,30.0,"13:29:52",1
"18/08/24","13:40",0.0,32.4,66.6,1001.7,187.5,3.0,6.5,204.1,0.50,25.4,29.9,"13:32:24",1
"18/08/24","13:50",0.0,32.6,67.1,1001.7,191.4,3.1,6.5,196.1,0.54,25.7,30.3,"13:48:24",1
"18/08/24","14:00",0.0,33.0,64.4,1001.7,180.6,2.6,5.6,206.7,0.46,25.4,30.2,"13:57:36",1
"18/08/24","14:10",0.0,32.8,65.3,1001.5,176.8,2.8,5.2,135.4,0.42,25.5,30.2,"14:01:36",1
"18/08/24","14:20",0.0,32.5,66.7,1001.5,171.5,3.5,5.6,181.3,0.35,25.5,30.6,"14:12:00",1
"18/08/24","14:30",0.0,32.4,65.4,1001.2,181.3,2.8,6.8,212.8,0.36,25.1,30.5,"14:27:12",1
"18/08/24","14:40",0.0,32.4,65.4,1001.5,180.9,2.5,4.8,156.1,0.38,25.1,30.3,"14:33:44",1
"18/08/24","14:50",0.0,32.7,65.4,1001.7,156.7,2.3,4.0,136.2,0.40,25.4,30.5,"14:47:20",1
"18/08/24","15:00",0.0,32.4,65.3,1001.2,178.4,3.4,7.3,200.3,0.30,25.1,30.6,"14:56:48",1
"18/08/24","15:10",0.0,32.2,65.5,1001.5,180.8,2.7,5.9,196.4,0.24,25.0,30.7,"15:02:08",1
"18/08/24","15:20",0.0,32.7,64.3,1001.2,214.2,2.5,5.8,225.2,0.28,25.1,30.5,"15:15:52",1
"18/08/24","15:30",0.0,32.5,65.2,1001.7,190.3,1.8,4.0,182.4,0.34,25.2,30.5,"15:26:32",1
"18/08/24","15:40",0.0,32.0,64.8,1001.5,204.0,2.8,7.0,223.9,0.28,24.6,30.4,"15:32:48",1
"18/08/24","15:50",0.0,32.2,65.0,1001.2,189.7,2.1,5.2,222.1,0.24,24.8,30.5,"15:41:52",1
"18/08/24","16:00",0.0,31.7,67.8,1001.2,229.8,1.8,7.3,207.9,0.20,25.1,30.5,"15:56:16",1
"18/08/24","16:10",0.0,31.5,67.5,1001.0,218.7,2.7,5.8,227.1,0.23,24.8,30.4,"16:06:24",1
"18/08/24","16:20",0.0,31.4,67.0,1001.0,204.4,3.4,7.4,210.4,0.22,24.6,30.4,"16:19:28",1
"18/08/24","16:30",0.0,31.2,68.1,1001.0,222.7,3.0,5.8,206.9,0.16,24.7,30.6,"16:24:32",1
"18/08/24","16:40",0.0,31.1,68.4,1001.2,207.2,3.5,7.0,222.7,0.12,24.6,30.3,"16:39:28",1
"18/08/24","16:50",0.0,31.0,68.8,1001.0,215.5,2.7,6.3,227.7,0.05,24.6,30.3,"16:42:24",1
"18/08/24","17:00",0.0,30.6,70.3,1000.8,204.7,3.2,7.1,222.7,0.04,24.6,29.9,"16:57:28",1
"18/08/24","17:10",0.0,30.6,70.4,1000.8,214.4,2.3,5.9,219.9,0.04,24.6,29.7,"17:02:16",1
"18/08/24","17:20",0.0,30.4,70.7,1000.5,227.7,2.2,6.2,206.7,0.03,24.5,29.7,"17:11:04",1
"18/08/24","17:30",0.0,30.2,71.0,1000.5,218.8,1.3,3.7,240.2,0.02,24.4,29.7,"17:29:36",1
"18/08/24","17:40",0.0,30.1,71.6,1000.5,194.2,1.8,4.5,199.9,0.02,24.4,29.6,"17:30:16",1
"18/08/24","17:50",0.0,30.1,71.5,1000.5,214.4,1.8,5.0,177.4,0.02,24.4,29.5,"17:49:36",1
"18/08/24","18:00",0.0,30.0,71.5,1000.3,193.9,2.7,8.3,204.5,0.01,24.3,29.3,"17:54:24",1
"18/08/24","18:10",0.0,30.0,71.2,1000.5,203.6,3.9,11.1,231.4,0.01,24.3,29.5,"18:08:48",1
"18/08/24","18:20",0.0,30.0,72.1,1000.3,179.7,2.8,5.9,225.1,0.00,24.5,29.3,"18:12:32",1
"18/08/24","18:30",0.0,29.9,72.3,1000.0,201.8,2.3,5.2,224.9,0.00,24.4,29.2,"18:27:28",1
"18/08/24","18:40",0.0,29.9,72.1,1000.0,201.8,4.1,7.8,227.9,0.00,24.4,29.0,"18:37:52",1
"18/08/24","18:50",0.0,29.8,72.8,1000.5,184.0,2.8,7.0,193.2,0.00,24.4,28.9,"18:41:12",1
"18/08/24","19:00",0.0,29.7,73.1,1000.5,200.5,2.8,7.3,208.6,0.00,24.4,29.0,"18:59:44",1
"18/08/24","19:10",0.0,29.6,73.2,1000.5,197.4,3.9,6.5,201.9,0.00,24.3,28.7,"19:09:28",1
"18/08/24","19:20",0.0,29.5,73.7,1001.0,206.5,3.7,8.3,186.8,0.00,24.3,28.7,"19:10:56",1
"18/08/24","19:30",0.0,29.4,74.1,1001.2,201.0,2.7,7.1,203.4,0.00,24.3,28.6,"19:27:04",1
"18/08/24","19:40",0.0,29.5,74.0,1001.0,201.1,3.5,7.2,208.0,0.00,24.4,28.3,"19:36:16",1
"18/08/24","19:50",0.0,29.4,74.3,1001.2,199.1,3.6,7.8,223.5,0.00,24.4,28.5,"19:46:24",1
"18/08/24","20:00",0.0,29.3,74.6,1001.5,200.5,3.4,6.4,138.9,0.00,24.4,28.4,"19:52:56",1
"18/08/24","20:10",0.0,29.3,74.9,1001.7,210.9,2.6,6.7,191.4,0.00,24.4,28.4,"20:01:36",1
"18/08/24","20:20",0.0,29.3,75.1,1001.9,203.7,3.0,7.1,228.5,0.00,24.5,28.1,"20:19:36",1
"18/08/24","20:30",0.0,29.3,74.7,1001.9,206.9,2.6,6.3,207.4,0.00,24.4,28.1,"20:26:00",1
"18/08/24","20:40",0.0,29.3,74.9,1002.2,208.9,2.7,5.8,219.9,0.00,24.4,28.0,"20:38:48",1
"18/08/24","20:50",0.0,29.3,75.1,1002.2,208.6,2.0,4.4,225.4,0.00,24.5,28.0,"20:40:32",1
"18/08/24","21:00",0.0,29.1,75.9,1002.4,194.2,2.0,4.8,181.0,0.00,24.5,28.1,"20:52:56",1
"18/08/24","21:10",0.0,29.1,75.9,1002.6,210.9,2.5,5.5,210.8,0.00,24.5,27.9,"21:04:16",1
"18/08/24","21:20",0.0,29.1,75.5,1002.9,228.5,2.1,5.2,223.4,0.00,24.4,27.7,"21:13:44",1
"18/08/24","21:30",0.0,29.1,75.1,1003.1,225.9,1.3,3.4,230.5,0.00,24.3,27.9,"21:24:00",1
"18/08/24","21:40",0.0,29.1,75.7,1002.9,203.1,1.5,3.7,152.7,0.00,24.4,27.9,"21:38:40",1
"18/08/24","21:50",0.0,29.1,75.6,1002.4,207.0,2.0,4.7,212.7,0.00,24.4,27.7,"21:47:36",1
"18/08/24","22:00",0.0,29.1,75.4,1002.9,209.4,1.8,5.0,212.8,0.00,24.3,27.7,"21:56:48",1
"18/08/24","22:10",0.0,29.1,74.7,1002.6,215.4,2.0,5.6,226.7,0.00,24.2,27.7,"22:04:48",1
"18/08/24","22:20",0.0,29.1,74.8,1002.9,206.3,1.6,4.4,228.7,0.00,24.2,27.6,"22:10:40",1
"18/08/24","22:30",0.0,29.1,74.1,1002.9,211.1,3.1,6.6,221.9,0.00,24.1,27.7,"22:28:40",1
"18/08/24","22:40",0.0,29.1,74.0,1002.9,199.2,2.1,4.2,150.8,0.00,24.0,27.6,"22:32:32",1
"18/08/24","22:50",0.0,29.2,73.7,1002.6,231.5,2.0,4.3,226.2,0.00,24.1,27.7,"22:42:24",1
"18/08/24","23:00",0.0,29.0,74.2,1003.1,176.8,1.2,2.8,238.8,0.00,24.0,27.6,"22:59:04",1
"18/08/24","23:10",0.0,28.9,74.4,1003.4,216.7,0.7,2.4,244.6,0.00,23.9,27.5,"23:00:08",1
"18/08/24","23:20",0.0,28.9,74.7,1003.1,78.9,1.0,3.4,139.1,0.00,24.0,27.6,"23:12:56",1
"18/08/24","23:30",0.0,28.8,74.8,1003.6,202.5,1.1,3.2,228.4,0.00,23.9,27.4,"23:27:20",1
"18/08/24","23:40",0.0,28.8,75.4,1003.1,184.7,1.6,4.2,211.9,0.00,24.1,27.3,"23:31:04",1
"18/08/24","23:50",0.0,28.8,75.8,1003.4,186.0,1.7,3.1,203.9,0.00,24.1,27.4,"23:45:12",1
"18/08/24","24:00",0.0,28.6,76.3,1003.1,201.6,2.0,4.2,216.7,0.00,24.1,27.3,"23:53:36",1
